Location: Damada
(14.7329°N, 3.1761°W)
Time: 18:39:51
(UTC+00:00)

STARLINK-1052 - Pass Details

Date: 18 February 2020
Orbit: 548 x 551 km, 53.0° (Epoch: 29 March)

Event Time Altitude Azimuth Distance (km) Brightness Sun altitude
Rises 18:49:59 0° 227° (SW) 2,700 8.2 -8.5°
Reaches altitude 10° 18:52:17 10° 234° (SW) 1,808 7.4 -9.0°
Maximum altitude 18:56:12 45° 307° (NW) 751 4.7 -10.0°
Drops below altitude 10° 19:00:09 10° 21° (NNE) 1,810 6.0 -10.9°
Enters shadow 19:01:57 - 26° (NNE) 2,505 6.6 -11.3°
